Wind_Speed
18 18 18 19 18 18 19 19 20 21 21 21 22 21 20 23 23 16 6 5 8 5 4 1 3 6 3 3 2 1 2 2 5 6 4 8 5 5 4 13 3 3 6 14 28
18 18 19 19 18 19 19 20 21 22 22 21 22 20 19 21 19 13 19 9 9 5 5 6 4 4 2 4 3 2 3 7 8 7 7 7 12 14 5 10 1 11 16 27 31
18 18 19 19 19 19 20 21 22 22 21 21 21 19 18 15 4 7 5 14 14 10 6 3 4 3 3 3 6 5 5 5 4 6 8 11 11 6 14 5 6 20 21 22 27
18 19 19 19 20 20 21 22 22 21 21 21 21 17 15 4 2 3 8 7 19 9 5 1 4 4 3 5 4 3 3 2 6 8 8 10 8 6 10 6 14 20 25 20 21
19 19 19 20 20 21 22 22 21 21 20 21 18 14 5 3 8 4 5 3 14 8 5 1 2 1 3 5 9 2 10 7 9 9 5 6 4 6 4 15 15 19 22 20 19
20 19 19 20 21 23 23 22 20 20 19 17 14 8 2 3 2 6 1 3 7 9 3 4 3 2 2 4 1 5 11 9 7 10 6 6 1 5 4 15 15 17 19 19 19
21 21 20 21 23 24 23 23 21 19 17 12 7 3 0 13 4 7 9 4 2 5 3 5 3 4 4 8 5 5 2 8 5 3 5 4 4 4 11 15 17 16 13 16 17
23 23 23 23 24 24 24 24 20 18 10 5 2 2 7 6 12 11 7 10 11 9 9 11 4 2 3 2 7 5 5 4 3 2 4 5 6 1 9 15 16 16 13 13 11
25 24 24 23 24 24 25 23 18 5 1 2 3 2 9 11 7 8 12 6 5 4 5 6 5 3 4 4 5 6 2 3 2 2 5 1 4 5 10 12 13 15 15 14 13
27 26 25 25 24 27 24 15 4 3 4 2 1 3 6 3 6 6 11 8 2 2 5 4 5 3 3 4 3 2 4 2 4 4 5 4 4 4 11 13 16 15 15 14 14
27 27 26 25 23 26 22 1 3 3 2 7 5 4 6 11 7 6 7 6 4 7 3 3 5 5 8 6 5 3 3 4 4 8 1 4 4 5 8 11 13 14 18 17 16
28 28 27 25 27 17 5 3 3 2 7 9 11 6 11 4 4 5 9 5 4 4 2 5 4 8 4 1 2 3 3 3 5 7 2 6 9 4 9 12 16 19 14 16 12
29 28 28 26 16 2 10 5 16 8 1 7 5 5 5 9 6 6 5 4 4 4 3 6 5 5 4 5 4 3 4 4 10 3 6 4 8 1 3 2 9 16 14 12 14
30 29 29 26 2 12 6 12 18 4 4 5 3 7 5 5 4 7 7 5 1 8 7 4 4 5 0 5 7 6 7 8 6 6 9 5 6 5 4 4 8 16 10 13 10
31 31 29 16 12 4 7 18 9 4 3 2 3 1 2 7 3 2 4 6 7 5 6 7 3 4 6 11 6 11 4 8 6 8 2 1 3 8 1 6 12 11 5 8 11
35 32 25 5 7 8 13 13 2 4 1 1 5 4 5 2 3 4 3 5 3 5 2 6 2 6 9 7 7 3 4 7 6 3 1 5 5 7 5 11 11 7 8 8 9
41 26 15 7 3 3 15 3 4 3 4 3 3 4 3 4 3 5 5 6 5 5 3 7 5 4 4 3 2 4 6 3 4 4 6 5 4 10 4 4 3 10 8 9 9
32 19 7 10 3 8 3 5 1 3 6 1 4 3 5 6 4 2 5 3 2 5 3 4 6 6 4 9 8 4 8 6 5 3 6 3 4 7 2 6 7 7 8 8 10
27 8 4 1 13 2 5 3 5 4 4 1 4 3 3 2 1 2 5 6 9 9 7 5 6 5 5 4 9 4 1 4 8 3 2 4 7 7 7 6 7 8 6 10 11
18 8 4 2 14 4 4 4 4 4 6 1 3 3 3 3 5 5 4 5 6 11 6 3 2 2 5 4 5 4 8 3 4 2 2 5 5 5 3 8 9 7 9 14 7
6 3 4 12 6 5 3 5 5 7 4 2 2 1 4 3 7 6 5 4 7 4 7 5 4 7 2 2 6 2 1 6 5 5 5 1 6 7 5 8 9 9 14 15 8
6 2 1 14 3 1 1 5 5 6 2 4 1 2 2 3 2 6 9 6 8 11 11 7 5 3 5 3 4 4 7 6 5 5 2 4 6 5 5 10 9 12 10 3 10
2 3 6 5 1 3 6 5 4 4 4 3 2 1 2 4 2 3 4 5 7 6 9 7 1 2 9 7 2 2 2 5 6 4 4 5 5 4 2 3 7 8 9 7 9
1 2 3 2 1 2 4 5 5 6 5 3 1 3 5 7 4 4 6 5 3 4 7 9 4 7 6 7 3 4 1 5 6 4 5 5 7 6 9 4 7 8 10 10 9
1 1 2 2 2 4 2 4 6 5 2 3 1 4 3 4 7 6 4 6 5 4 4 4 4 3 4 5 2 3 2 6 5 5 4 4 3 7 9 5 5 6 8 12 10
1 2 4 2 3 3 2 1 3 6 3 4 4 4 5 4 2 1 4 5 1 7 4 3 1 2 2 6 8 5 5 8 5 3 4 4 3 3 9 6 9 7 6 10 11
3 2 3 3 4 2 2 4 4 9 2 3 8 7 8 1 5 3 3 2 2 2 3 3 4 3 1 4 2 4 4 1 3 3 1 2 5 2 5 6 6 7 9 8 12
Wind_Direction
340 338 338 335 334 333 333 333 336 337 336 335 335 332 332 327 320 311 250 190 171 149 197 210 238 257 175 260 193 50 67 269 226 157 194 160 135 141 93 139 198 171 126 150 146
340 339 337 335 333 331 330 330 332 333 334 333 333 331 331 327 321 279 249 216 213 188 199 189 237 194 146 219 171 159 167 218 208 164 168 166 147 151 127 162 77 87 108 136 141
337 335 334 333 332 329 328 329 328 328 330 330 333 331 331 325 318 249 295 225 210 208 244 273 260 178 120 282 156 207 232 224 187 147 154 145 137 157 132 202 190 144 144 146 153
335 334 331 331 328 326 325 325 323 325 327 329 333 333 331 333 231 261 338 232 194 194 241 318 25 24 351 344 266 257 265 348 160 144 148 162 142 127 161 194 158 148 151 153 163
333 333 331 330 328 325 322 323 323 323 324 327 331 337 349 8 252 289 339 120 184 197 220 126 59 143 8 297 347 30 353 48 105 103 111 116 94 154 196 139 151 149 150 163 173
335 335 332 330 327 325 324 322 321 320 320 323 328 343 2 292 286 335 311 160 159 184 192 150 200 169 282 281 41 295 320 126 105 129 102 100 55 99 146 146 152 162 160 167 178
350 342 335 332 329 326 322 319 317 315 314 314 330 25 62 238 117 326 300 256 195 202 182 210 139 60 359 319 20 265 105 89 9 144 131 155 35 266 148 158 158 170 183 165 180
347 343 337 333 330 326 321 318 315 308 301 295 338 85 250 263 306 269 243 241 263 255 250 271 228 163 185 307 353 19 44 91 278 98 179 55 265 93 156 161 171 175 187 191 195
346 342 338 334 332 328 319 321 312 301 221 138 104 119 269 304 266 246 225 228 272 278 274 262 138 160 46 72 7 9 97 27 3 48 133 200 222 155 174 178 187 187 187 196 204
346 343 338 335 334 331 320 329 21 118 128 111 255 354 277 346 327 284 217 216 148 333 13 111 57 94 56 77 206 330 358 3 272 266 144 135 256 132 174 187 199 199 191 200 205
344 343 339 336 334 326 326 9 19 10 201 207 200 251 279 327 315 239 165 112 81 51 160 10 97 181 211 181 175 188 223 256 264 268 211 154 241 212 189 188 202 209 206 197 204
344 342 339 336 330 320 354 53 57 326 302 235 238 260 273 303 315 315 154 116 123 181 125 26 190 216 235 221 202 159 253 273 282 275 357 283 271 168 181 210 201 210 209 204 202
345 343 338 335 329 24 317 269 334 351 192 292 204 206 210 144 210 255 125 133 139 154 147 161 224 181 168 290 307 232 203 182 226 209 317 328 313 174 266 198 195 215 212 200 201
344 341 337 338 85 330 290 330 337 143 50 272 253 265 161 172 269 220 171 135 63 191 152 240 230 190 159 250 154 275 190 205 260 143 227 141 266 290 272 259 244 219 189 194 191
341 336 332 336 301 281 319 333 359 104 56 172 203 156 114 143 260 16 181 67 175 179 114 243 178 176 199 234 139 240 285 208 245 171 60 14 74 273 258 260 246 222 172 195 191
337 332 327 317 281 267 333 334 48 37 248 218 149 155 102 39 289 342 100 72 149 158 2 244 282 156 216 247 179 274 102 37 43 80 50 247 136 271 197 218 236 121 179 182 186
333 331 304 260 241 205 336 28 44 140 358 215 182 132 102 179 245 184 173 169 159 98 339 325 265 246 174 208 17 91 61 350 5 12 232 242 185 242 301 221 185 179 165 191 202
335 326 275 246 109 260 340 53 174 274 253 318 109 80 160 171 244 149 112 182 105 90 123 163 321 183 179 183 185 167 152 158 175 182 264 288 242 261 33 148 124 128 166 203 199
338 331 285 345 199 170 76 96 222 221 278 12 67 80 293 337 283 91 174 200 195 171 171 154 270 297 220 163 138 169 167 193 109 39 51 273 294 329 79 107 117 165 188 220 219
335 328 288 113 154 110 77 239 247 227 326 347 142 174 185 240 158 156 192 216 202 185 135 190 335 279 328 111 53 140 150 71 13 156 250 298 288 243 206 183 169 190 207 234 210
345 32 349 147 137 49 164 236 278 257 9 356 189 186 179 240 197 186 210 262 197 123 127 146 112 285 14 107 189 56 72 55 115 128 161 194 270 221 232 208 213 198 216 223 224
346 57 141 151 52 33 206 206 279 292 37 302 133 239 226 245 250 199 213 234 170 148 163 200 155 245 236 259 240 181 171 133 124 236 126 145 270 225 223 211 210 233 220 160 219
13 274 173 341 93 316 303 292 269 291 297 206 356 297 33 19 340 198 191 324 132 129 163 181 17 27 348 356 350 98 169 114 111 88 188 136 257 1 106 264 254 255 255 253 218
36 48 339 57 147 129 303 282 305 301 258 251 185 87 49 15 348 18 14 359 354 91 125 97 104 146 160 219 240 346 345 144 123 114 172 226 286 40 344 292 260 257 269 254 284
58 326 190 290 335 329 330 308 315 312 292 328 339 93 123 28 356 8 353 357 19 347 72 88 125 152 218 247 241 24 70 64 72 135 118 273 256 347 302 280 282 290 331 317 297
60 37 356 288 311 307 27 285 283 319 266 321 81 49 112 119 178 311 358 38 302 343 65 27 174 183 37 357 86 81 35 79 59 65 73 88 30 51 296 50 41 24 314 282 286
345 351 113 291 343 63 286 297 283 316 280 9 138 96 63 123 217 237 213 206 269 86 82 73 117 70 297 323 72 22 345 133 124 44 218 156 221 3 310 42 55 4 358 337 297
Height
792 789 787 784 781 779 776 774 772 769 767 764 761 758 755 750 745 741 737 736 737 739 740 739 741 741 743 743 741 741 775 787 773 770 760 749 757 754 752 760 759 760 766 771 782
790 788 785 783 780 778 775 772 770 767 764 762 759 757 754 750 745 738 729 733 736 738 740 740 740 740 749 745 745 754 779 769 745 745 753 747 751 754 762 767 765 768 768 777 784
789 786 784 781 778 776 773 770 767 764 762 760 757 755 752 749 747 730 726 728 732 736 737 737 738 738 747 741 742 747 763 744 736 735 737 746 751 747 762 774 764 769 773 779 784
788 785 782 779 776 773 771 768 765 762 760 757 755 753 750 749 759 726 724 724 729 734 735 735 737 744 750 755 739 750 732 734 732 733 738 747 742 754 754 754 752 760 767 775 781
786 783 780 777 774 771 768 765 763 760 758 755 753 751 749 751 741 726 725 724 728 731 732 735 741 745 756 752 740 744 735 732 731 734 738 737 747 751 754 749 754 761 770 775 778
784 781 778 775 771 768 765 763 760 758 755 753 752 751 751 758 727 726 726 727 728 730 731 733 736 737 745 747 750 738 734 736 736 738 740 749 750 747 755 750 756 762 768 774 777
783 780 776 773 769 765 762 759 757 755 753 751 751 751 752 739 726 725 727 727 729 729 731 732 733 738 741 748 734 735 750 745 745 741 748 743 763 761 750 753 758 762 765 770 775
782 778 774 770 767 763 759 756 753 751 750 749 750 751 749 726 725 723 725 726 727 728 729 729 732 735 741 737 743 755 757 776 748 744 745 749 780 758 756 759 764 763 766 766 769
780 776 772 768 764 760 755 751 748 747 748 749 750 751 746 724 723 721 723 725 726 727 727 728 730 740 743 764 778 772 790 776 764 745 749 755 771 758 756 761 767 764 763 765 766
778 774 769 765 762 757 751 748 746 747 748 749 750 755 731 728 722 720 721 724 726 727 730 732 746 760 769 778 808 787 785 776 776 755 749 762 766 759 756 760 764 763 761 762 761
776 772 767 762 758 754 748 747 750 752 748 743 742 741 732 725 720 717 719 723 727 736 753 745 766 779 767 764 765 770 777 781 764 750 744 757 759 755 755 756 764 763 755 755 756
774 769 764 760 756 751 750 751 754 756 757 733 732 733 727 729 735 720 719 731 738 757 748 763 777 758 750 753 763 771 778 781 763 750 750 747 754 753 751 751 753 750 757 755 755
772 767 762 757 752 751 751 749 749 748 757 738 728 729 725 726 733 729 719 728 740 753 755 771 759 746 753 758 768 772 781 779 774 761 757 758 770 762 753 749 745 739 745 750 751
770 765 760 755 756 752 748 747 745 743 775 747 732 721 719 720 731 714 715 725 738 753 758 757 744 748 755 764 767 784 753 759 764 778 796 761 809 770 762 758 748 737 747 746 748
768 763 759 757 754 753 748 745 742 743 789 730 728 710 714 726 724 718 713 723 746 746 752 760 746 753 763 757 754 767 743 759 756 781 777 780 796 779 765 764 751 740 747 745 740
765 759 755 754 753 747 746 743 743 779 776 736 720 726 730 726 725 718 719 717 727 743 744 749 734 742 747 737 744 739 753 772 784 793 812 785 793 790 778 754 737 743 740 739 738
759 754 752 752 748 746 745 745 781 786 735 738 735 728 735 738 732 729 736 743 758 774 774 758 748 734 730 746 742 753 783 817 812 825 821 789 794 769 740 737 732 735 736 734 733
751 747 745 745 745 747 747 764 782 747 746 720 729 734 743 738 736 733 743 756 746 757 783 784 783 742 727 740 755 756 774 814 821 830 817 788 789 760 733 729 723 724 725 725 726
749 745 743 742 743 747 756 783 769 752 731 730 731 746 747 735 736 737 748 758 748 749 772 783 772 730 725 723 731 758 776 766 807 816 817 801 773 742 738 739 736 733 729 725 721
749 745 742 742 744 748 766 777 759 739 728 725 744 738 752 742 746 745 750 733 737 734 733 753 773 735 727 717 729 739 753 785 803 808 809 808 795 783 746 743 738 737 732 718 717
750 749 744 745 747 757 777 774 750 729 725 729 735 738 740 738 744 753 742 727 723 732 733 745 763 754 733 741 752 757 765 784 791 804 820 821 800 750 741 735 733 731 721 715 719
756 758 747 748 764 778 772 757 740 730 722 724 721 728 732 730 737 747 742 728 709 724 744 736 766 772 748 729 728 737 751 769 802 794 811 811 792 726 728 726 722 717 714 715 713
770 766 751 751 775 776 764 751 739 733 730 724 726 722 723 732 738 732 723 705 707 716 733 735 769 790 773 754 736 737 747 761 778 790 803 804 787 734 726 725 722 720 713 712 709
770 765 760 757 764 761 762 755 745 725 727 717 719 721 728 740 735 736 729 713 705 711 718 725 767 773 793 769 753 748 739 749 761 790 792 790 769 742 740 734 726 723 714 711 705
771 769 767 770 764 761 760 756 753 747 721 718 722 726 730 746 744 744 732 726 715 716 719 731 759 756 755 751 743 741 746 748 757 766 772 762 761 758 750 736 732 727 725 720 715
771 772 768 770 767 763 765 754 753 744 732 730 731 732 732 742 738 742 736 733 734 725 728 740 761 752 759 749 742 751 749 750 752 756 756 759 759 750 743 729 731 729 727 724 719
769 768 770 771 768 765 764 759 750 745 726 722 725 735 738 732 727 721 723 724 723 727 740 746 762 771 770 761 753 771 758 757 762 762 761 762 754 750 746 734 733 728 725 723 717